[[{"header":{"parameterUnit":"m.s-1","parameterCategory":1,"la1":30.2991,"la2":30.254,"lo1":-89.0895,"lo2":-89.0444,"dy":0.0017,"dx":0.0017,"nx":28,"ny":28,"refTime":"2023-08-05T03:00:00:Z","depth":0,"parameterNumber":2,"parameterNumberName":"U-component_of_WINDS"},"data":[0,0,0,0,0,0,0,0,0,0,0,0,0,0,0,0,0,0,0,0,0,0,0,0,0,0,0,0,0,0,0,0,0,0,0,0,0,0,0,0,0,0,0,0,0,0,0,0,0,0,0,0,0,0,0,0,0,0,1.2815,1.2817,0,1.2986,1.2988,1.299,1.3039,1.3039,1.3038,1.3037,1.3212,1.3217,1.3222,0,0,0,0,0,0,0,0,0,0,0,0,0,1.253,1.2535,1.2815,1.2817,1.2819,1.2986,1.2988,1.299,1.304,1.3039,1.3037,1.3036,1.321,1.3216,1.3223,0,0,0,0,0,0,0,0,0,0,0,0,0,1.2673,1.2537,1.2814,1.2864,1.287,1.2985,1.2988,1.2991,1.304,1.3038,1.3037,1.3036,1.3208,1.3216,1.3224,1.3302,0,0,1.3249,1.3252,0,0,0,0,0,0,0,0,1.2665,1.2683,1.2854,1.2861,1.2868,1.299,1.2952,1.3095,1.304,1.2975,1.3037,1.3035,1.3139,1.3153,1.3188,1.331,1.3318,1.325,1.3255,1.3258,1.3261,0,0,0,0,0,0,0,1.2655,1.2676,1.2882,1.2857,1.2865,1.2877,1.2896,1.2979,1.3063,1.2981,1.2985,1.3004,1.3142,1.318,1.3192,1.332,1.3249,1.3257,1.3262,1.3265,1.3515,1.3516,0,0,0,0,0,0,1.2636,1.2667,1.2877,1.2888,1.2761,1.2883,1.2904,1.2952,1.3062,1.3077,1.3005,1.3006,1.3166,1.3183,1.3199,1.3297,1.3258,1.3266,1.3271,1.3513,1.3515,1.3517,0,0,0,0,0,0,1.263,1.2655,1.287,1.2779,1.2807,1.289,1.2943,1.2956,1.2994,1.308,1.3096,1.3028,1.3166,1.3187,1.3276,1.3304,1.327,1.3277,1.3511,1.3514,1.3516,1.3494,0,0,0,0,0,0,1.2622,1.2652,1.2683,1.2779,1.2812,1.2945,1.2945,1.296,1.3008,1.301,1.3106,1.3121,1.3166,1.3263,1.3284,1.3314,1.3284,1.3509,1.3512,1.3515,1.3493,1.3496,1.3498,0,0,0,0,0,1.2611,1.267,1.2684,1.2709,1.2852,1.2946,1.2965,1.3016,1.301,1.3041,1.3097,1.3117,1.3297,1.3272,1.3296,1.3329,1.3507,1.3511,1.3515,1.3491,1.3495,1.3498,0,0,0,0,0,0,1.2575,1.2683,1.27,1.2792,1.2859,1.2954,1.2995,1.3019,1.3089,1.3089,1.315,1.3171,1.3255,1.3301,1.3271,1.341,1.3403,1.3412,1.3377,1.3381,1.3384,1.337,1.329,0,0,0,0,0,1.2577,1.2645,1.2736,1.2808,1.2841,1.2912,1.2955,1.2989,1.3061,1.309,1.3152,1.3222,1.3294,1.334,1.3411,1.35,1.3521,1.3534,1.3537,1.3539,1.3545,1.3595,1.3602,1.3529,1.3529,1.3529,0,0,1.2583,1.2651,1.269,1.2802,1.2858,1.2927,1.2936,1.3008,1.3059,1.3101,1.3189,1.3237,1.3318,1.3407,1.3449,1.3448,1.357,1.3544,1.3544,1.355,1.36,1.3606,1.3612,1.3532,1.3531,1.3531,0,0,1.2628,1.2687,1.2753,1.2809,1.2894,1.2941,1.2957,1.3049,1.3082,1.3171,1.3204,1.3265,1.3389,1.3445,1.349,1.3556,1.3578,1.3578,1.3591,1.3639,1.3645,1.365,1.3673,1.3681,1.3584,1.3584,1.3584,0,1.2624,1.2729,1.2784,1.2854,1.2902,1.2944,1.3011,1.3063,1.3166,1.3199,1.3196,1.3351,1.3408,1.3511,1.3527,1.3562,1.3581,1.3567,1.364,1.3646,1.3651,1.3674,1.3683,1.3584,1.3584,1.3584,1.3584,0,1.272,1.2792,1.2835,1.2935,1.2988,1.3056,1.312,1.3168,1.3197,1.3244,1.3334,1.3404,1.349,1.3517,1.3546,1.3624,1.362,1.3628,1.3621,1.3657,1.3679,1.3688,1.3583,1.3583,1.3583,1.3583,0,0,1.2747,1.2875,1.289,1.2936,1.3033,1.3089,1.3159,1.3243,1.3282,1.3353,1.3413,1.3516,1.3523,1.3574,1.361,1.3652,1.3699,1.3655,1.3657,1.366,1.3788,1.3781,1.379,1.3714,1.3716,1.3717,1.3781,0,1.2804,1.2931,1.2982,1.3085,1.3151,1.3192,1.3253,1.3318,1.3364,1.3427,1.3478,1.355,1.3555,1.3586,1.3629,1.3684,1.3726,1.368,1.377,1.3772,1.3748,1.3802,1.3795,1.3852,1.379,1.3791,1.3793,0,1.2887,1.2958,1.3068,1.3157,1.3187,1.324,1.3322,1.3382,1.3457,1.3487,1.3544,1.3577,1.3652,1.3641,1.3744,1.3712,1.3752,1.3785,1.3788,1.3798,1.3784,1.3813,1.3871,1.3879,1.3807,1.3806,1.3805,0,1.2895,1.3018,1.31,1.3137,1.3243,1.328,1.3325,1.34,1.3447,1.3518,1.3549,1.3627,1.367,1.373,1.3783,1.3771,1.3881,1.3875,1.3908,1.3907,1.3929,1.3927,1.3994,1.3956,1.3955,1.3955,1.3955,0,1.2953,1.3018,1.3104,1.3154,1.3228,1.3286,1.3358,1.3406,1.3472,1.3531,1.3571,1.3626,1.3694,1.3758,1.38,1.3879,1.3898,1.3925,1.3935,1.3921,1.3917,1.3947,1.3945,1.3958,1.3957,1.3957,1.3956,0,1.2974,1.3034,1.3125,1.3218,1.3243,1.3293,1.3372,1.3422,1.347,1.3545,1.3566,1.3641,1.3718,1.3777,1.3878,1.3906,1.3989,1.4001,1.3964,1.3969,1.3999,1.3995,1.4087,1.4101,1.4053,1.4053,1.4054,0,1.3006,1.3058,1.3156,1.3199,1.3244,1.3313,1.3362,1.3421,1.3469,1.3559,1.3598,1.3678,1.3745,1.3866,1.3929,1.4006,1.4019,1.4046,1.4031,1.4015,1.4019,1.4015,1.402,1.4048,1.4048,1.4048,1.4048,0,1.3058,1.3085,1.3154,1.3233,1.329,1.3355,1.3421,1.3454,1.3524,1.3577,1.3656,1.3708,1.3811,1.3889,1.3972,1.4019,1.4045,1.4052,1.4064,1.405,1.4026,1.4039,1.3968,1.405,1.405,1.405,1.405,1.4049,1.3086,1.3133,1.3209,1.3285,1.334,1.3401,1.3452,1.3506,1.3574,1.3662,1.3692,1.3774,1.3848,1.3962,1.401,1.4074,1.4075,1.4092,1.4096,1.4099,1.4098,1.4016,1.4089,1.4089,1.4089,1.4089,1.409,0,1.3139,1.319,1.3259,1.335,1.3408,1.3429,1.3502,1.355,1.3621,1.3688,1.3754,1.3844,1.3921,1.399,1.4069,1.4108,1.4122,1.4126,1.4124,1.4134,1.4092,1.4074,1.4114,1.4114,1.4114,1.4114,1.4114,1.4114,1.3173,1.3254,1.3291,1.3399,1.345,1.3531,1.3571,1.3627,1.3681,1.3781,1.3844,1.3889,1.3957,1.4042,1.4112,1.4131,1.4158,1.416,1.4181,1.414,1.4137,1.4134,1.4117,1.4165,1.4165,1.4217,1.4218,1.4218]},{"header":{"parameterUnit":"m.s-1","parameterCategory":1,"la1":30.2991,"la2":30.254,"lo1":-89.0895,"lo2":-89.0444,"dy":0.0017,"dx":0.0017,"nx":28,"ny":28,"refTime":"2023-08-05T03:00:00:Z","depth":0,"parameterNumber":3,"parameterNumberName":"V-component_of_WINDS"},"data":[0,0,0,0,0,0,0,0,0,0,0,0,0,0,0,0,0,0,0,0,0,0,0,0,0,0,0,0,0,0,0,0,0,0,0,0,0,0,0,0,0,0,0,0,0,0,0,0,0,0,0,0,0,0,0,0,0,0,6.3123,6.3122,0,6.3104,6.3104,6.3103,6.3013,6.3011,6.3009,6.3007,6.2989,6.2991,6.2992,0,0,0,0,0,0,0,0,0,0,0,0,0,6.3082,6.3084,6.3123,6.3122,6.3122,6.3104,6.3104,6.3103,6.3014,6.3011,6.3009,6.3006,6.2989,6.299,6.2992,0,0,0,0,0,0,0,0,0,0,0,0,0,6.3085,6.3084,6.3123,6.3075,6.3071,6.3104,6.3104,6.3103,6.3014,6.3011,6.3008,6.3005,6.2988,6.299,6.2992,6.307,0,0,6.2999,6.3,0,0,0,0,0,0,0,0,6.3085,6.3087,6.3083,6.3079,6.3074,6.3058,6.3083,6.3092,6.3015,6.3036,6.3007,6.3004,6.3015,6.3014,6.3018,6.3069,6.3068,6.2999,6.3001,6.3002,6.3002,0,0,0,0,0,0,0,6.3085,6.3087,6.3115,6.3083,6.3077,6.3055,6.3052,6.3084,6.3043,6.3034,6.3027,6.3026,6.3012,6.3016,6.3017,6.3068,6.2999,6.3001,6.3003,6.3004,6.3182,6.3185,0,0,0,0,0,0,6.3092,6.3088,6.3116,6.3115,6.3072,6.3059,6.3055,6.3066,6.3043,6.3036,6.3029,6.3022,6.3014,6.3014,6.3016,6.3104,6.3002,6.3004,6.3005,6.3178,6.3182,6.3186,0,0,0,0,0,0,6.3091,6.3095,6.3117,6.3099,6.31,6.3063,6.3076,6.3067,6.3072,6.3039,6.3031,6.3041,6.3011,6.3013,6.3057,6.3103,6.3005,6.3007,6.3174,6.318,6.3184,6.3283,0,0,0,0,0,0,6.309,6.3095,6.3124,6.3101,6.3102,6.3158,6.3078,6.3069,6.3076,6.3066,6.3048,6.3042,6.3009,6.3054,6.3059,6.3104,6.3009,6.317,6.3177,6.3183,6.3276,6.3291,6.3304,0,0,0,0,0,6.3089,6.3153,6.3126,6.313,6.3137,6.3161,6.3161,6.3121,6.308,6.3108,6.3087,6.3043,6.3097,6.3059,6.3064,6.3111,6.3167,6.3175,6.3182,6.3269,6.3288,6.3304,0,0,0,0,0,0,6.3183,6.3149,6.3119,6.3177,6.3172,6.3145,6.318,6.3143,6.315,6.3141,6.3092,6.3089,6.314,6.313,6.3088,6.3184,6.3124,6.3134,6.3189,6.3206,6.322,6.3221,6.3011,0,0,0,0,0,6.321,6.3232,6.3201,6.3256,6.3255,6.3219,6.3227,6.3197,6.3191,6.3188,6.3171,6.3166,6.3182,6.3194,6.3207,6.3274,6.3269,6.3308,6.3323,6.3334,6.3343,6.3377,6.3394,6.3211,6.3211,6.3211,0,0,6.3267,6.3251,6.3268,6.3274,6.3267,6.3291,6.3217,6.3246,6.3263,6.3193,6.3233,6.322,6.3212,6.3268,6.3292,6.3261,6.3392,6.3344,6.3354,6.3355,6.3387,6.3404,6.3419,6.3216,6.3215,6.3215,0,0,6.3382,6.3373,6.3417,6.3411,6.3401,6.3377,6.3388,6.3367,6.3355,6.3395,6.3343,6.3363,6.3392,6.3388,6.339,6.3505,6.3464,6.3511,6.3585,6.362,6.3634,6.3646,6.3687,6.3702,6.352,6.352,6.352,0,6.3454,6.3488,6.3444,6.3476,6.348,6.3417,6.3462,6.3459,6.3454,6.3459,6.3424,6.3459,6.3449,6.3503,6.3532,6.3536,6.3546,6.3512,6.3635,6.3647,6.3659,6.3697,6.3712,6.3526,6.3525,6.3524,6.3524,0,6.3576,6.36,6.3637,6.3634,6.3642,6.368,6.3643,6.3657,6.3626,6.3606,6.3647,6.3634,6.3643,6.3653,6.3624,6.3704,6.3685,6.3644,6.3583,6.3682,6.3717,6.3732,6.3534,6.3532,6.353,6.3529,0,0,6.3749,6.3721,6.3735,6.3733,6.3718,6.3736,6.3772,6.378,6.3793,6.3793,6.3821,6.3847,6.3809,6.3812,6.3781,6.3812,6.3903,6.3767,6.3766,6.3792,6.399,6.402,6.4038,6.3877,6.3879,6.3881,6.399,0,6.3858,6.3917,6.3879,6.3943,6.3965,6.3906,6.3937,6.3932,6.3914,6.393,6.391,6.3929,6.3878,6.3879,6.3906,6.3886,6.3942,6.3878,6.3902,6.3904,6.3905,6.4056,6.4088,6.4192,6.4004,6.4006,6.4008,0,6.3994,6.3999,6.4065,6.4046,6.4054,6.4082,6.4087,6.4103,6.4096,6.4081,6.4084,6.4046,6.408,6.4021,6.4067,6.4024,6.4032,6.4024,6.4027,6.4027,6.3961,6.406,6.4224,6.4239,6.4029,6.4027,6.4026,0,6.4112,6.4136,6.4178,6.4178,6.4157,6.4178,6.4171,6.416,6.4168,6.4173,6.4177,6.4186,6.4191,6.4199,6.4165,6.4125,6.4216,6.4153,6.4204,6.4205,6.4224,6.4224,6.4392,6.4232,6.4231,6.4231,6.4231,0,6.4238,6.4281,6.4231,6.4257,6.4304,6.4261,6.4308,6.4294,6.4286,6.4308,6.4259,6.4281,6.4235,6.4253,6.4227,6.4269,6.4272,6.4261,6.4253,6.4265,6.4266,6.4268,6.426,6.4235,6.4234,6.4233,6.4233,0,6.4378,6.4346,6.4389,6.4365,6.436,6.4396,6.4376,6.4399,6.4378,6.4408,6.4412,6.4379,6.4398,6.4365,6.438,6.4362,6.4421,6.4403,6.4423,6.4417,6.4469,6.4465,6.4644,6.4665,6.4493,6.4494,6.4496,0,6.4459,6.4491,6.4471,6.4483,6.4477,6.4497,6.4504,6.4463,6.4473,6.4468,6.4492,6.4507,6.4516,6.4549,6.4527,6.4538,6.4519,6.4581,6.452,6.4531,6.4519,6.4517,6.452,6.4593,6.4595,6.4597,6.4599,0,6.4608,6.4591,6.4603,6.4611,6.4621,6.4625,6.4625,6.4638,6.4594,6.4608,6.4627,6.4634,6.4649,6.4664,6.467,6.4662,6.4624,6.4618,6.463,6.4642,6.4652,6.4647,6.4456,6.4614,6.4612,6.4611,6.461,6.461,6.472,6.4746,6.4736,6.4751,6.4747,6.4749,6.477,6.4751,6.4766,6.4774,6.475,6.4774,6.4766,6.477,6.4767,6.4786,6.4758,6.4776,6.478,6.4785,6.4793,6.465,6.4787,6.4786,6.4786,6.4785,6.4785,0,6.4866,6.4856,6.4871,6.4873,6.4886,6.4848,6.4847,6.486,6.4882,6.4878,6.4888,6.4909,6.4924,6.4903,6.4914,6.4933,6.4916,6.4938,6.4935,6.4934,6.4817,6.4805,6.4952,6.4952,6.4951,6.4951,6.4951,6.4951,6.4943,6.4983,6.4965,6.5003,6.4994,6.5017,6.5019,6.5021,6.5017,6.5043,6.5055,6.5041,6.5031,6.5041,6.5053,6.5046,6.5052,6.508,6.5068,6.4959,6.4942,6.4927,6.4915,6.5082,6.5082,6.5183,6.5184,6.5184]}]]